Time,TemperatureF,DewpointF,PressureIn,WindDirection,WindDirectionDegrees,WindSpeedMPH,WindSpeedGustMPH,Humidity,HourlyPrecipIn,Conditions,Clouds,dailyrainin,SoftwareType,DateUTC
2013-03-17 00:00:00,68.0,-99.9,29.85,SE,141,10.0,18.0,-999,-99.99,,,-99.99,,2013-03-17 05:00:00,
2013-03-17 00:32:00,68.0,-99.9,29.85,SE,141,10.0,18.0,-999,-99.99,,,-99.99,,2013-03-17 05:32:00,
2013-03-17 00:43:00,68.0,-99.9,29.85,SE,141,10.0,18.0,-999,-99.99,,,-99.99,,2013-03-17 05:43:00,
2013-03-17 00:52:00,68.0,-99.9,29.85,SE,141,10.0,18.0,-999,-99.99,,,-99.99,,2013-03-17 05:52:00,
2013-03-17 01:00:00,68.0,-99.9,29.83,SE,142,12.0,15.0,-999,-99.99,,,-99.99,,2013-03-17 06:00:00,
2013-03-17 01:32:00,68.0,-99.9,29.83,SE,142,12.0,15.0,-999,-99.99,,,-99.99,,2013-03-17 06:32:00,
2013-03-17 01:42:00,68.0,-99.9,29.83,SE,142,12.0,15.0,-999,-99.99,,,-99.99,,2013-03-17 06:42:00,
2013-03-17 01:53:00,68.0,-99.9,29.83,SE,142,12.0,15.0,-999,-99.99,,,-99.99,,2013-03-17 06:53:00,
2013-03-17 02:00:00,68.0,-99.9,29.82,SE,138,11.0,14.0,-999,-99.99,,,-99.99,,2013-03-17 07:00:00,
2013-03-17 02:32:00,68.0,-99.9,29.82,SE,138,11.0,14.0,-999,-99.99,,,-99.99,,2013-03-17 07:32:00,
2013-03-17 02:42:00,68.0,-99.9,29.82,SE,138,11.0,14.0,-999,-99.99,,,-99.99,,2013-03-17 07:42:00,
2013-03-17 02:52:00,68.0,-99.9,29.82,SE,138,11.0,14.0,-999,-99.99,,,-99.99,,2013-03-17 07:52:00,
2013-03-17 03:00:00,67.0,-99.9,29.80,SE,143,10.0,16.0,-999,-99.99,,,-99.99,,2013-03-17 08:00:00,
2013-03-17 03:33:00,67.0,-99.9,29.80,SE,143,10.0,16.0,-999,-99.99,,,-99.99,,2013-03-17 08:33:00,
2013-03-17 03:42:00,67.0,-99.9,29.80,SE,143,10.0,16.0,-999,-99.99,,,-99.99,,2013-03-17 08:42:00,
2013-03-17 03:52:00,67.0,-99.9,29.80,SE,143,10.0,16.0,-999,-99.99,,,-99.99,,2013-03-17 08:52:00,
2013-03-17 04:00:00,67.0,-99.9,29.78,SSE,147,11.0,17.0,-999,-99.99,,,-99.99,,2013-03-17 09:00:00,
2013-03-17 04:33:00,67.0,-99.9,29.78,SSE,147,11.0,17.0,-999,-99.99,,,-99.99,,2013-03-17 09:33:00,
2013-03-17 04:43:00,67.0,-99.9,29.78,SSE,147,11.0,17.0,-999,-99.99,,,-99.99,,2013-03-17 09:43:00,
2013-03-17 04:53:00,67.0,-99.9,29.78,SSE,147,11.0,17.0,-999,-99.99,,,-99.99,,2013-03-17 09:53:00,
2013-03-17 05:00:00,67.0,-99.9,29.77,SE,145,11.0,15.0,-999,-99.99,,,-99.99,,2013-03-17 10:00:00,
2013-03-17 05:33:00,67.0,-99.9,29.77,SE,145,11.0,15.0,-999,-99.99,,,-99.99,,2013-03-17 10:33:00,
2013-03-17 05:42:00,67.0,-99.9,29.77,SE,145,11.0,15.0,-999,-99.99,,,-99.99,,2013-03-17 10:42:00,
2013-03-17 05:53:00,67.0,-99.9,29.77,SE,145,11.0,15.0,-999,-99.99,,,-99.99,,2013-03-17 10:53:00,
2013-03-17 06:00:00,67.0,-99.9,29.76,SE,138,11.0,14.0,-999,-99.99,,,-99.99,,2013-03-17 11:00:00,
2013-03-17 06:32:00,67.0,-99.9,29.76,SE,138,11.0,14.0,-999,-99.99,,,-99.99,,2013-03-17 11:32:00,
2013-03-17 06:43:00,67.0,-99.9,29.76,SE,138,11.0,14.0,-999,-99.99,,,-99.99,,2013-03-17 11:43:00,
2013-03-17 06:52:00,67.0,-99.9,29.76,SE,138,11.0,14.0,-999,-99.99,,,-99.99,,2013-03-17 11:52:00,
2013-03-17 07:00:00,67.0,-99.9,29.78,SE,146,9.0,13.0,-999,-99.99,,,-99.99,,2013-03-17 12:00:00,
2013-03-17 07:33:00,67.0,-99.9,29.78,SE,146,9.0,13.0,-999,-99.99,,,-99.99,,2013-03-17 12:33:00,
2013-03-17 07:43:00,67.0,-99.9,29.78,SE,146,9.0,13.0,-999,-99.99,,,-99.99,,2013-03-17 12:43:00,
2013-03-17 07:52:00,67.0,-99.9,29.78,SE,146,9.0,13.0,-999,-99.99,,,-99.99,,2013-03-17 12:52:00,
2013-03-17 08:00:00,67.0,-99.9,29.78,SE,146,10.0,15.0,-999,-99.99,,,-99.99,,2013-03-17 13:00:00,
2013-03-17 08:33:00,67.0,-99.9,29.78,SE,146,10.0,15.0,-999,-99.99,,,-99.99,,2013-03-17 13:33:00,
2013-03-17 08:43:00,67.0,-99.9,29.78,SE,146,10.0,15.0,-999,-99.99,,,-99.99,,2013-03-17 13:43:00,
2013-03-17 08:53:00,67.0,-99.9,29.78,SE,146,10.0,15.0,-999,-99.99,,,-99.99,,2013-03-17 13:53:00,
2013-03-17 09:00:00,69.0,-99.9,29.79,SE,146,13.0,18.0,-999,-99.99,,,-99.99,,2013-03-17 14:00:00,
2013-03-17 09:33:00,69.0,-99.9,29.79,SE,146,13.0,18.0,-999,-99.99,,,-99.99,,2013-03-17 14:33:00,
2013-03-17 09:43:00,69.0,-99.9,29.79,SE,146,13.0,18.0,-999,-99.99,,,-99.99,,2013-03-17 14:43:00,
2013-03-17 09:53:00,69.0,-99.9,29.79,SE,146,13.0,18.0,-999,-99.99,,,-99.99,,2013-03-17 14:53:00,
2013-03-17 10:00:00,70.0,-99.9,29.80,SE,139,14.0,19.0,-999,-99.99,,,-99.99,,2013-03-17 15:00:00,
2013-03-17 10:33:00,70.0,-99.9,29.80,SE,139,14.0,19.0,-999,-99.99,,,-99.99,,2013-03-17 15:33:00,
2013-03-17 10:43:00,70.0,-99.9,29.80,SE,139,14.0,19.0,-999,-99.99,,,-99.99,,2013-03-17 15:43:00,
2013-03-17 10:53:00,70.0,-99.9,29.80,SE,139,14.0,19.0,-999,-99.99,,,-99.99,,2013-03-17 15:53:00,
2013-03-17 11:00:00,71.0,-99.9,29.81,SSE,149,12.0,18.0,-999,-99.99,,,-99.99,,2013-03-17 16:00:00,
2013-03-17 11:34:00,71.0,-99.9,29.81,SSE,149,12.0,18.0,-999,-99.99,,,-99.99,,2013-03-17 16:34:00,
2013-03-17 11:43:00,71.0,-99.9,29.81,SSE,149,12.0,18.0,-999,-99.99,,,-99.99,,2013-03-17 16:43:00,
2013-03-17 11:53:00,71.0,-99.9,29.81,SSE,149,12.0,18.0,-999,-99.99,,,-99.99,,2013-03-17 16:53:00,
2013-03-17 12:00:00,72.0,-99.9,29.80,SSE,151,14.0,21.0,-999,-99.99,,,-99.99,,2013-03-17 17:00:00,
2013-03-17 12:33:00,72.0,-99.9,29.80,SSE,151,14.0,21.0,-999,-99.99,,,-99.99,,2013-03-17 17:33:00,
2013-03-17 12:42:00,72.0,-99.9,29.80,SSE,151,14.0,21.0,-999,-99.99,,,-99.99,,2013-03-17 17:42:00,
2013-03-17 12:53:00,72.0,-99.9,29.80,SSE,151,14.0,21.0,-999,-99.99,,,-99.99,,2013-03-17 17:53:00,
2013-03-17 13:00:00,73.0,-99.9,29.78,SE,144,13.0,23.0,-999,-99.99,,,-99.99,,2013-03-17 18:00:00,
2013-03-17 13:32:00,73.0,-99.9,29.78,SE,144,13.0,23.0,-999,-99.99,,,-99.99,,2013-03-17 18:32:00,
2013-03-17 13:42:00,73.0,-99.9,29.78,SE,144,13.0,23.0,-999,-99.99,,,-99.99,,2013-03-17 18:42:00,
2013-03-17 13:52:00,73.0,-99.9,29.78,SE,144,13.0,23.0,-999,-99.99,,,-99.99,,2013-03-17 18:52:00,
2013-03-17 14:00:00,73.0,-99.9,29.74,SE,137,16.0,23.0,-999,-99.99,,,-99.99,,2013-03-17 19:00:00,
2013-03-17 14:34:00,73.0,-99.9,29.74,SE,137,16.0,23.0,-999,-99.99,,,-99.99,,2013-03-17 19:34:00,
2013-03-17 14:42:00,73.0,-99.9,29.74,SE,137,16.0,23.0,-999,-99.99,,,-99.99,,2013-03-17 19:42:00,
2013-03-17 14:53:00,73.0,-99.9,29.74,SE,137,16.0,23.0,-999,-99.99,,,-99.99,,2013-03-17 19:53:00,
2013-03-17 15:00:00,72.0,-99.9,29.71,SE,142,19.0,26.0,-999,-99.99,,,-99.99,,2013-03-17 20:00:00,
2013-03-17 15:33:00,72.0,-99.9,29.71,SE,142,19.0,26.0,-999,-99.99,,,-99.99,,2013-03-17 20:33:00,
2013-03-17 15:43:00,72.0,-99.9,29.71,SE,142,19.0,26.0,-999,-99.99,,,-99.99,,2013-03-17 20:43:00,
2013-03-17 15:52:00,72.0,-99.9,29.71,SE,142,19.0,26.0,-999,-99.99,,,-99.99,,2013-03-17 20:52:00,
2013-03-17 16:00:00,72.0,-99.9,29.68,SE,139,19.0,26.0,-999,-99.99,,,-99.99,,2013-03-17 21:00:00,
2013-03-17 16:33:00,72.0,-99.9,29.68,SE,139,19.0,26.0,-999,-99.99,,,-99.99,,2013-03-17 21:33:00,
2013-03-17 16:43:00,72.0,-99.9,29.68,SE,139,19.0,26.0,-999,-99.99,,,-99.99,,2013-03-17 21:43:00,
2013-03-17 16:53:00,72.0,-99.9,29.68,SE,139,19.0,26.0,-999,-99.99,,,-99.99,,2013-03-17 21:53:00,
2013-03-17 17:00:00,72.0,-99.9,29.67,SE,141,18.0,25.0,-999,-99.99,,,-99.99,,2013-03-17 22:00:00,
2013-03-17 17:33:00,72.0,-99.9,29.67,SE,141,18.0,25.0,-999,-99.99,,,-99.99,,2013-03-17 22:33:00,
2013-03-17 17:42:00,72.0,-99.9,29.67,SE,141,18.0,25.0,-999,-99.99,,,-99.99,,2013-03-17 22:42:00,
2013-03-17 17:53:00,72.0,-99.9,29.67,SE,141,18.0,25.0,-999,-99.99,,,-99.99,,2013-03-17 22:53:00,
2013-03-17 18:00:00,72.0,-99.9,29.67,SE,140,19.0,28.0,-999,-99.99,,,-99.99,,2013-03-17 23:00:00,
2013-03-17 18:33:00,72.0,-99.9,29.67,SE,140,19.0,28.0,-999,-99.99,,,-99.99,,2013-03-17 23:33:00,
2013-03-17 18:43:00,72.0,-99.9,29.67,SE,140,19.0,28.0,-999,-99.99,,,-99.99,,2013-03-17 23:43:00,
2013-03-17 18:53:00,72.0,-99.9,29.67,SE,140,19.0,28.0,-999,-99.99,,,-99.99,,2013-03-17 23:53:00,
2013-03-17 19:00:00,70.0,-99.9,29.67,SE,135,19.0,24.0,-999,-99.99,,,-99.99,,2013-03-18 00:00:00,
2013-03-17 19:33:00,70.0,-99.9,29.67,SE,135,19.0,24.0,-999,-99.99,,,-99.99,,2013-03-18 00:33:00,
2013-03-17 19:42:00,70.0,-99.9,29.67,SE,135,19.0,24.0,-999,-99.99,,,-99.99,,2013-03-18 00:42:00,
2013-03-17 19:53:00,70.0,-99.9,29.67,SE,135,19.0,24.0,-999,-99.99,,,-99.99,,2013-03-18 00:53:00,
2013-03-17 20:00:00,70.0,-99.9,29.68,SE,136,15.0,22.0,-999,-99.99,,,-99.99,,2013-03-18 01:00:00,
2013-03-17 20:33:00,70.0,-99.9,29.68,SE,136,15.0,22.0,-999,-99.99,,,-99.99,,2013-03-18 01:33:00,
2013-03-17 20:42:00,70.0,-99.9,29.68,SE,136,15.0,22.0,-999,-99.99,,,-99.99,,2013-03-18 01:42:00,
2013-03-17 20:52:00,70.0,-99.9,29.68,SE,136,15.0,22.0,-999,-99.99,,,-99.99,,2013-03-18 01:52:00,
2013-03-17 21:00:00,69.0,-99.9,29.69,SE,139,14.0,19.0,-999,-99.99,,,-99.99,,2013-03-18 02:00:00,
2013-03-17 21:32:00,69.0,-99.9,29.69,SE,139,14.0,19.0,-999,-99.99,,,-99.99,,2013-03-18 02:32:00,
2013-03-17 21:42:00,69.0,-99.9,29.69,SE,139,14.0,19.0,-999,-99.99,,,-99.99,,2013-03-18 02:42:00,
2013-03-17 21:52:00,69.0,-99.9,29.69,SE,139,14.0,19.0,-999,-99.99,,,-99.99,,2013-03-18 02:52:00,
2013-03-17 22:00:00,69.0,-99.9,29.70,SE,135,17.0,19.0,-999,-99.99,,,-99.99,,2013-03-18 03:00:00,
2013-03-17 22:33:00,69.0,-99.9,29.70,SE,135,17.0,19.0,-999,-99.99,,,-99.99,,2013-03-18 03:33:00,
2013-03-17 22:42:00,69.0,-99.9,29.70,SE,135,17.0,19.0,-999,-99.99,,,-99.99,,2013-03-18 03:42:00,
2013-03-17 22:53:00,69.0,-99.9,29.70,SE,135,17.0,19.0,-999,-99.99,,,-99.99,,2013-03-18 03:53:00,
2013-03-17 23:00:00,69.0,-99.9,29.71,SE,146,14.0,20.0,-999,-99.99,,,-99.99,,2013-03-18 04:00:00,
2013-03-17 23:33:00,69.0,-99.9,29.71,SE,146,14.0,20.0,-999,-99.99,,,-99.99,,2013-03-18 04:33:00,
2013-03-17 23:43:00,69.0,-99.9,29.71,SE,146,14.0,20.0,-999,-99.99,,,-99.99,,2013-03-18 04:43:00,
2013-03-17 23:53:00,69.0,-99.9,29.71,SE,146,14.0,20.0,-999,-99.99,,,-99.99,,2013-03-18 04:53:00,